This is the latest recevied weather packets stored in our database for station/object W1SCW. If no packets are shown the sender has not sent any weather packets the latest 10 day(s).
| Time | Temp. | Humidity | Pressure | Rain* | Wind** | Luminosity | Snow |
|---|---|---|---|---|---|---|---|
| 1776909875 | 22.22° C | 87% | 1013 hPa | 0 mm | - | 0 W/m² | - |
| 1776909572 | 22.22° C | 87% | 1012.8 hPa | 0 mm | - | 0 W/m² | - |
| 1776909269 | 22.78° C | 87% | 1012.8 hPa | 0 mm | - | 0 W/m² | - |
| 1776908967 | 22.78° C | 86% | 1012.8 hPa | 0 mm | - | 0 W/m² | - |
| 1776908665 | 22.78° C | 86% | 1012.9 hPa | 0 mm | - | 0 W/m² | - |
| 1776908361 | 22.78° C | 85% | 1012.6 hPa | 0 mm | - | 0 W/m² | - |
| 1776908057 | 22.78° C | 85% | 1012.7 hPa | 0 mm | - | 0 W/m² | - |
| 1776907754 | 22.78° C | 85% | 1012.6 hPa | 0 mm | - | 0 W/m² | - |
| 1776907451 | 22.78° C | 85% | 1012.5 hPa | 0 mm | - | 0 W/m² | - |
| 1776907148 | 22.78° C | 84% | 1012.8 hPa | 0 mm | - | 0 W/m² | - |
| 1776906845 | 22.78° C | 84% | 1012.7 hPa | 0 mm | - | 0 W/m² | - |
| 1776906543 | 23.33° C | 84% | 1012.9 hPa | 0 mm | - | 0 W/m² | - |
| 1776906239 | 23.33° C | 85% | 1012.7 hPa | 0 mm | - | 1 W/m² | - |
| 1776905935 | 23.33° C | 85% | 1013 hPa | 0 mm | - | 2 W/m² | - |
| 1776905631 | 23.33° C | 84% | 1012.7 hPa | 0 mm | - | 3 W/m² | - |
| 1776905327 | 23.89° C | 84% | 1012.6 hPa | 0 mm | - | 6 W/m² | - |
| 1776905023 | 23.89° C | 83% | 1012.7 hPa | 0 mm | - | 9 W/m² | - |
| 1776904721 | 23.89° C | 83% | 1012.8 hPa | 0 mm | - | 14 W/m² | - |
| 1776904419 | 23.89° C | 82% | 1012.4 hPa | 0 mm | - | 22 W/m² | - |
| 1776904115 | 23.89° C | 82% | 1012.6 hPa | 0 mm | - | 29 W/m² | - |
| 1776903810 | 24.44° C | 81% | 1012.6 hPa | 0 mm | - | 31 W/m² | - |
| 1776903506 | 24.44° C | 80% | 1012.3 hPa | 0 mm | - | 38 W/m² | - |
| 1776903203 | 24.44° C | 79% | 1012.4 hPa | 0 mm | - | 45 W/m² | - |
| 1776902899 | 25° C | 78% | 1012.5 hPa | 0 mm | - | 57 W/m² | - |
| 1776902597 | 25° C | 78% | 1012.4 hPa | 0 mm | - | 69 W/m² | - |
* Rain latest hour (hover to see other rain measurements)
** Current wind speed in m/s (hover to see current wind gust speed)